Location: Mahannah Oil Field
(37.4664°N, 96.6003°W)
Time: 13:54:45
(UTC+00:00)

Altair - All Passes

Search period start: 23 January 2021 00:00
Search period end: 02 February 2021 00:00
Orbit: 1501 x 1682 km, 47.2° (Epoch: 22 January)

Date Brightness Start Highest point End Pass type
(mag) Time Alt. Az. Time Alt. Az. Time Alt. Az.
23 Jan - 09:15:20 10° S 09:22:46 25° SE 09:30:21 10° ENE visible
23 Jan - 11:16:32 10° SW 11:26:31 79° SE 11:36:42 10° ENE visible
23 Jan - 13:22:10 10° W 13:32:03 55° NNW 13:41:59 10° ENE daylight
23 Jan - 15:28:44 10° WNW 15:38:38 52° N 15:48:22 10° E daylight
23 Jan - 17:34:11 10° WNW 17:44:25 90° S 17:54:19 10° SE daylight
23 Jan - 19:40:04 10° WNW 19:48:23 31° SW 19:56:30 10° S daylight
24 Jan - 08:50:45 10° S 08:57:42 22° SE 09:04:47 10° E visible
24 Jan - 10:51:26 10° SW 11:01:19 74° SE 11:11:27 10° ENE visible
24 Jan - 12:56:50 10° W 13:06:43 56° NNW 13:16:43 10° ENE visible
24 Jan - 15:03:27 10° WNW 15:13:17 51° N 15:23:01 10° E daylight
24 Jan - 17:08:56 10° WNW 17:19:11 86° NNE 17:29:08 10° ESE daylight
24 Jan - 19:14:39 10° WNW 19:23:18 34° SW 19:31:44 10° S daylight
25 Jan - 08:26:15 10° SSE 08:32:39 20° ESE 08:39:09 10° E visible
25 Jan - 10:26:20 10° SW 10:36:08 70° SE 10:46:13 10° ENE visible
25 Jan - 12:31:31 10° W 12:41:24 58° NNW 12:51:26 10° ENE visible
25 Jan - 14:38:07 10° WNW 14:47:57 50° N 14:57:41 10° E daylight
25 Jan - 16:43:42 10° WNW 16:53:56 81° NNE 17:03:55 10° ESE daylight
25 Jan - 18:49:16 10° WNW 18:58:12 37° SW 19:06:54 10° SSE daylight
26 Jan - 08:01:52 10° SSE 08:07:36 17° ESE 08:13:25 10° E visible
26 Jan - 10:01:15 10° SW 10:10:57 65° SE 10:20:57 10° ENE visible
26 Jan - 12:06:11 10° W 12:16:06 60° NNW 12:26:11 10° ENE visible
26 Jan - 14:12:48 10° WNW 14:22:35 49° N 14:32:20 10° E daylight
26 Jan - 16:18:28 10° WNW 16:28:42 77° NNE 16:38:42 10° ESE daylight
26 Jan - 18:23:55 10° WNW 18:33:05 41° SW 18:42:02 10° SSE daylight
27 Jan - 07:37:39 10° SSE 07:42:33 15° ESE 07:47:31 10° E visible
27 Jan - 09:36:12 10° SW 09:45:47 60° SE 09:55:40 10° ENE visible
27 Jan - 11:40:53 10° WSW 11:50:48 63° NNW 12:00:55 10° ENE visible
27 Jan - 13:47:28 10° WNW 13:57:14 49° N 14:07:00 10° ENE daylight
27 Jan - 15:53:13 10° WNW 16:03:26 74° NNE 16:13:28 10° ESE daylight
27 Jan - 17:58:35 10° WNW 18:07:58 45° SW 18:17:08 10° SSE daylight
28 Jan - 07:13:42 10° SE 07:17:32 13° ESE 07:21:22 10° E visible
28 Jan - 09:11:11 10° SSW 09:20:38 55° SE 09:30:23 10° ENE visible
28 Jan - 11:15:35 10° WSW 11:25:30 65° NNW 11:35:39 10° ENE visible
28 Jan - 13:22:09 10° WNW 13:31:53 49° N 13:41:39 10° ENE daylight
28 Jan - 15:27:57 10° WNW 15:38:10 70° NNE 15:48:11 10° ESE daylight
28 Jan - 17:33:16 10° WNW 17:42:51 49° SW 17:52:11 10° SSE daylight
29 Jan - 06:50:26 10° SE 06:52:29 11° ESE 06:54:33 10° ESE night (unlit)
29 Jan - 08:46:12 10° SSW 08:55:30 51° SE 09:05:05 10° ENE visible
29 Jan - 10:50:19 10° WSW 11:00:13 68° NNW 11:10:24 10° ENE visible
29 Jan - 12:56:50 10° WNW 13:06:32 49° N 13:16:19 10° ENE visible
29 Jan - 15:02:43 10° WNW 15:12:53 67° NNE 15:22:54 10° ESE daylight
29 Jan - 17:07:58 10° WNW 17:17:42 53° SW 17:27:12 10° SSE daylight
29 Jan - 19:17:33 10° W 19:20:48 12° WSW 19:24:02 10° SW daylight
30 Jan - 08:21:15 10° SSW 08:30:22 47° SE 08:39:47 10° ENE visible
30 Jan - 10:25:03 10° WSW 10:34:57 72° NNW 10:45:08 10° ENE visible
30 Jan - 12:31:30 10° WNW 12:41:11 49° N 12:50:58 10° ENE visible
30 Jan - 14:37:28 10° WNW 14:47:35 64° NNE 14:57:37 10° ESE daylight
30 Jan - 16:42:41 10° WNW 16:52:32 58° SW 17:02:12 10° SSE daylight
30 Jan - 18:51:12 10° W 18:55:46 14° WSW 19:00:17 10° SSW daylight
31 Jan - 07:56:20 10° SSW 08:05:15 43° SE 08:14:28 10° ENE visible
31 Jan - 09:59:48 10° WSW 10:09:42 75° NNW 10:19:53 10° ENE visible
31 Jan - 12:06:10 10° WNW 12:15:50 49° N 12:25:38 10° ENE visible
31 Jan - 14:12:13 10° WNW 14:22:18 62° NNE 14:32:18 10° E daylight
31 Jan - 16:17:24 10° WNW 16:27:23 62° SW 16:37:09 10° SE daylight
31 Jan - 18:25:13 10° W 18:30:43 16° WSW 18:36:10 10° SSW daylight
01 Feb - 07:31:27 10° SSW 07:40:09 39° SE 07:49:07 10° ENE visible
01 Feb - 09:34:35 10° WSW 09:44:26 79° NNW 09:54:38 10° ENE visible
01 Feb - 11:40:50 10° W 11:50:29 49° N 12:00:18 10° ENE visible
01 Feb - 13:46:57 10° WNW 13:56:59 59° NNE 14:06:59 10° E daylight
01 Feb - 15:52:09 10° WNW 16:02:12 67° SW 16:12:05 10° SE daylight
01 Feb - 17:59:25 10° W 18:05:40 19° WSW 18:11:51 10° SSW daylight
